[[{"header":{"parameterUnit":"m.s-1","parameterCategory":1,"la1":30.2991,"la2":30.254,"lo1":-89.0895,"lo2":-89.0444,"dy":0.0017,"dx":0.0017,"nx":28,"ny":28,"refTime":"2024-06-13T21:00:00:Z","depth":0,"parameterNumber":2,"parameterNumberName":"U-component_of_WINDS"},"data":[0,0,0,0,0,0,0,0,0,0,0,0,0,0,0,0,0,0,0,0,0,0,0,0,0,0,0,0,0,0,0,0,0,0,0,0,0,0,0,0,0,0,0,0,0,0,0,0,0,0,0,0,0,0,0,0,0,0,0.8449,0.8449,0,0.8482,0.8483,0.8483,0.8488,0.8487,0.8487,0.8487,0.852,0.8521,0.8522,0,0,0,0,0,0,0,0,0,0,0,0,0,0.8385,0.8386,0.8448,0.8449,0.8449,0.8482,0.8483,0.8483,0.8488,0.8487,0.8487,0.8486,0.8519,0.8521,0.8522,0,0,0,0,0,0,0,0,0,0,0,0,0,0.8415,0.8387,0.8448,0.8456,0.8456,0.8482,0.8483,0.8483,0.8488,0.8487,0.8487,0.8486,0.8519,0.8521,0.8522,0.8543,0,0,0.8528,0.8528,0,0,0,0,0,0,0,0,0.8413,0.8418,0.8454,0.8455,0.8456,0.848,0.8473,0.8503,0.8488,0.8476,0.8487,0.8486,0.8507,0.851,0.8517,0.8544,0.8546,0.8528,0.8529,0.853,0.853,0,0,0,0,0,0,0,0.8411,0.8416,0.8462,0.8455,0.8456,0.8456,0.846,0.8478,0.8494,0.8477,0.8477,0.8481,0.8507,0.8515,0.8518,0.8546,0.8528,0.8529,0.853,0.8531,0.8591,0.8592,0,0,0,0,0,0,0.8408,0.8414,0.8461,0.8463,0.8433,0.8458,0.8462,0.8473,0.8493,0.8496,0.8482,0.8481,0.8512,0.8516,0.8519,0.8544,0.853,0.8531,0.8532,0.8591,0.8591,0.8592,0,0,0,0,0,0,0.8407,0.8412,0.8459,0.8439,0.8445,0.8459,0.8472,0.8474,0.8482,0.8497,0.85,0.8487,0.8512,0.8516,0.8537,0.8545,0.8532,0.8534,0.859,0.8591,0.8592,0.8594,0,0,0,0,0,0,0.8405,0.8412,0.842,0.8439,0.8446,0.8477,0.8472,0.8475,0.8485,0.8485,0.8503,0.8505,0.8512,0.8534,0.8539,0.8547,0.8535,0.8589,0.859,0.8591,0.8593,0.8595,0.8596,0,0,0,0,0,0.8403,0.842,0.8421,0.8426,0.8457,0.8478,0.8482,0.849,0.8486,0.8494,0.8504,0.8505,0.8543,0.8536,0.8541,0.855,0.8589,0.859,0.8591,0.8593,0.8594,0.8596,0,0,0,0,0,0,0.8401,0.8422,0.8424,0.8447,0.8461,0.8479,0.8489,0.8492,0.8506,0.8506,0.8514,0.8518,0.8538,0.8546,0.8538,0.8571,0.8566,0.8568,0.8565,0.8567,0.8568,0.8566,0.8537,0,0,0,0,0,0.8404,0.842,0.8437,0.8456,0.8462,0.8475,0.8484,0.8489,0.8503,0.8509,0.852,0.8533,0.8548,0.8558,0.8573,0.8594,0.8598,0.8603,0.8605,0.8606,0.8607,0.8619,0.8621,0.8596,0.8596,0.8596,0,0,0.8409,0.8422,0.8432,0.8456,0.8467,0.8482,0.848,0.8496,0.8508,0.8511,0.8531,0.854,0.8555,0.8576,0.8586,0.8583,0.8615,0.8607,0.8608,0.8609,0.862,0.8622,0.8624,0.8597,0.8597,0.8596,0,0,0.8426,0.8438,0.8455,0.8466,0.8483,0.8491,0.8495,0.8512,0.8518,0.8538,0.8541,0.8554,0.858,0.8591,0.86,0.862,0.8621,0.8624,0.8632,0.8642,0.8644,0.8646,0.8653,0.8655,0.8626,0.8626,0.8626,0,0.843,0.8454,0.8463,0.848,0.849,0.8494,0.851,0.8521,0.8541,0.8548,0.8545,0.8577,0.8588,0.8611,0.8616,0.8623,0.8627,0.8622,0.8644,0.8645,0.8647,0.8654,0.8656,0.8626,0.8626,0.8626,0.8626,0,0.8458,0.8475,0.8486,0.8506,0.8517,0.8534,0.8544,0.8555,0.8558,0.8566,0.8586,0.8599,0.8616,0.8622,0.8626,0.8645,0.8643,0.8642,0.8637,0.865,0.8656,0.8658,0.8627,0.8627,0.8627,0.8627,0,0,0.8476,0.85,0.8504,0.8513,0.8531,0.8544,0.856,0.8577,0.8586,0.8599,0.8613,0.8634,0.8633,0.8643,0.8648,0.8657,0.8671,0.8655,0.8655,0.8657,0.8693,0.8693,0.8696,0.8672,0.8673,0.8673,0.8691,0,0.8494,0.8524,0.8532,0.8557,0.8572,0.8576,0.8589,0.8602,0.861,0.8623,0.8631,0.8646,0.8643,0.8649,0.8659,0.8668,0.8679,0.8667,0.8684,0.8684,0.868,0.8699,0.87,0.8716,0.8694,0.8694,0.8694,0,0.8521,0.8535,0.8562,0.8578,0.8584,0.8597,0.8612,0.8625,0.8639,0.8644,0.8655,0.8658,0.8674,0.8668,0.869,0.8682,0.8689,0.8694,0.8695,0.8697,0.869,0.8701,0.8722,0.8724,0.8698,0.8698,0.8698,0,0.853,0.8556,0.8575,0.8583,0.8602,0.861,0.8619,0.8632,0.8642,0.8655,0.8661,0.8676,0.8685,0.8696,0.8703,0.8698,0.8724,0.8719,0.8728,0.8727,0.8733,0.8732,0.8755,0.8738,0.8738,0.8738,0.8738,0,0.855,0.8566,0.858,0.8591,0.8609,0.8617,0.8634,0.8642,0.8654,0.8666,0.8671,0.8682,0.8692,0.8704,0.871,0.8727,0.873,0.8734,0.8735,0.8734,0.8733,0.8738,0.8737,0.8739,0.8739,0.8739,0.8738,0,0.8564,0.8573,0.8594,0.8611,0.8615,0.8627,0.8641,0.8652,0.8659,0.8675,0.8679,0.8691,0.8706,0.8715,0.8734,0.8737,0.8756,0.8757,0.8751,0.8752,0.876,0.8759,0.8786,0.879,0.8771,0.8771,0.8772,0,0.8576,0.8588,0.8606,0.8615,0.8623,0.8637,0.8647,0.8656,0.8665,0.8682,0.869,0.8706,0.8718,0.8742,0.8752,0.8766,0.8767,0.8775,0.8769,0.8766,0.8766,0.8765,0.8766,0.8776,0.8777,0.8777,0.8777,0,0.8596,0.86,0.8614,0.8629,0.8641,0.8654,0.8666,0.8673,0.8683,0.8694,0.8709,0.8719,0.8738,0.8753,0.8768,0.8776,0.8778,0.8779,0.8781,0.878,0.8776,0.8777,0.8754,0.8778,0.8778,0.8778,0.8778,0.8778,0.8608,0.8619,0.8633,0.8648,0.8659,0.867,0.8681,0.869,0.8703,0.872,0.8724,0.874,0.8752,0.8772,0.8781,0.8793,0.8791,0.8795,0.8796,0.8797,0.8797,0.8774,0.8795,0.8795,0.8795,0.8795,0.8795,0,0.8628,0.8637,0.8651,0.8669,0.868,0.8682,0.8695,0.8705,0.8719,0.8731,0.8743,0.876,0.8775,0.8785,0.88,0.8807,0.8808,0.8811,0.881,0.8812,0.8798,0.8794,0.8809,0.8809,0.8809,0.8809,0.8809,0.8809,0.864,0.8658,0.8663,0.8686,0.8695,0.8711,0.8719,0.8729,0.8738,0.8757,0.8769,0.8776,0.8788,0.8803,0.8815,0.8818,0.8823,0.8825,0.8827,0.8814,0.8813,0.8811,0.8807,0.8826,0.8826,0.884,0.884,0.8841]},{"header":{"parameterUnit":"m.s-1","parameterCategory":1,"la1":30.2991,"la2":30.254,"lo1":-89.0895,"lo2":-89.0444,"dy":0.0017,"dx":0.0017,"nx":28,"ny":28,"refTime":"2024-06-13T21:00:00:Z","depth":0,"parameterNumber":3,"parameterNumberName":"V-component_of_WINDS"},"data":[0,0,0,0,0,0,0,0,0,0,0,0,0,0,0,0,0,0,0,0,0,0,0,0,0,0,0,0,0,0,0,0,0,0,0,0,0,0,0,0,0,0,0,0,0,0,0,0,0,0,0,0,0,0,0,0,0,0,-0.8402,-0.8402,0,-0.8392,-0.8392,-0.8392,-0.8395,-0.8395,-0.8395,-0.8395,-0.8383,-0.8383,-0.8382,0,0,0,0,0,0,0,0,0,0,0,0,0,-0.8423,-0.8423,-0.8402,-0.8402,-0.8402,-0.8392,-0.8392,-0.8392,-0.8395,-0.8395,-0.8395,-0.8395,-0.8383,-0.8383,-0.8382,0,0,0,0,0,0,0,0,0,0,0,0,0,-0.8414,-0.8423,-0.8402,-0.8402,-0.8402,-0.8392,-0.8392,-0.8392,-0.8395,-0.8395,-0.8395,-0.8396,-0.8384,-0.8383,-0.8382,-0.8371,0,0,-0.838,-0.8379,0,0,0,0,0,0,0,0,-0.8414,-0.8413,-0.8402,-0.8402,-0.8402,-0.8395,-0.8395,-0.8385,-0.8395,-0.8397,-0.8395,-0.8396,-0.8387,-0.8386,-0.8383,-0.837,-0.8369,-0.8379,-0.8379,-0.8379,-0.8378,0,0,0,0,0,0,0,-0.8415,-0.8413,-0.8398,-0.8402,-0.8402,-0.8403,-0.8402,-0.8393,-0.839,-0.8397,-0.8397,-0.8396,-0.8387,-0.8384,-0.8383,-0.8369,-0.838,-0.8379,-0.8378,-0.8378,-0.8347,-0.8347,0,0,0,0,0,0,-0.8416,-0.8414,-0.8398,-0.8398,-0.8409,-0.8402,-0.8401,-0.8397,-0.839,-0.839,-0.8396,-0.8396,-0.8385,-0.8384,-0.8382,-0.8369,-0.8379,-0.8378,-0.8377,-0.8347,-0.8347,-0.8347,0,0,0,0,0,0,-0.8416,-0.8414,-0.8399,-0.8406,-0.8404,-0.8401,-0.8397,-0.8397,-0.8394,-0.839,-0.8389,-0.8394,-0.8385,-0.8383,-0.8374,-0.8368,-0.8378,-0.8377,-0.8348,-0.8347,-0.8347,-0.8341,0,0,0,0,0,0,-0.8417,-0.8415,-0.841,-0.8406,-0.8404,-0.8391,-0.8397,-0.8396,-0.8392,-0.8393,-0.8387,-0.8386,-0.8385,-0.8375,-0.8373,-0.8367,-0.8376,-0.8348,-0.8348,-0.8347,-0.8342,-0.8341,-0.8339,0,0,0,0,0,-0.8418,-0.8409,-0.841,-0.8408,-0.8398,-0.839,-0.8389,-0.8388,-0.8392,-0.8388,-0.8385,-0.8387,-0.8369,-0.8374,-0.8372,-0.8366,-0.8349,-0.8348,-0.8347,-0.8342,-0.8341,-0.8339,0,0,0,0,0,0,-0.8412,-0.8408,-0.841,-0.8399,-0.8395,-0.8391,-0.8385,-0.8387,-0.8381,-0.8382,-0.8381,-0.8379,-0.837,-0.8367,-0.8372,-0.8355,-0.8359,-0.8358,-0.8357,-0.8355,-0.8354,-0.8355,-0.8376,0,0,0,0,0,-0.8409,-0.8404,-0.8401,-0.8392,-0.839,-0.8388,-0.8384,-0.8384,-0.838,-0.8378,-0.8375,-0.837,-0.8364,-0.8359,-0.8353,-0.8342,-0.8341,-0.8337,-0.8336,-0.8335,-0.8333,-0.8327,-0.8326,-0.8344,-0.8344,-0.8344,0,0,-0.8404,-0.8401,-0.8398,-0.839,-0.8387,-0.8381,-0.8386,-0.8379,-0.8375,-0.8377,-0.8368,-0.8365,-0.836,-0.8349,-0.8345,-0.8347,-0.8328,-0.8334,-0.8333,-0.8332,-0.8326,-0.8325,-0.8323,-0.8343,-0.8344,-0.8344,0,0,-0.8391,-0.8389,-0.8381,-0.8378,-0.8374,-0.8373,-0.8371,-0.8367,-0.8366,-0.8357,-0.8358,-0.8353,-0.8342,-0.8338,-0.8335,-0.8322,-0.8323,-0.832,-0.8313,-0.8307,-0.8306,-0.8304,-0.83,-0.8298,-0.8319,-0.8319,-0.8319,0,-0.8385,-0.8376,-0.8377,-0.837,-0.8367,-0.837,-0.8362,-0.8359,-0.8352,-0.835,-0.8353,-0.8339,-0.8336,-0.8325,-0.8322,-0.8319,-0.8317,-0.832,-0.8306,-0.8305,-0.8304,-0.8299,-0.8297,-0.8318,-0.8318,-0.8318,-0.8318,0,-0.8368,-0.8362,-0.8356,-0.8351,-0.8347,-0.834,-0.834,-0.8336,-0.8336,-0.8335,-0.8326,-0.8322,-0.8316,-0.8313,-0.8314,-0.8302,-0.8304,-0.8306,-0.8311,-0.8301,-0.8297,-0.8295,-0.8318,-0.8318,-0.8318,-0.8318,0,0,-0.835,-0.8346,-0.8344,-0.8342,-0.8338,-0.8333,-0.8326,-0.832,-0.8317,-0.8313,-0.8307,-0.8298,-0.8301,-0.8297,-0.8297,-0.8292,-0.8282,-0.8295,-0.8295,-0.8293,-0.8269,-0.8267,-0.8265,-0.8283,-0.8283,-0.8283,-0.827,0,-0.8336,-0.8324,-0.8326,-0.8314,-0.8308,-0.8312,-0.8306,-0.8303,-0.8302,-0.8296,-0.8295,-0.8289,-0.8293,-0.8291,-0.8286,-0.8284,-0.8277,-0.8285,-0.8277,-0.8277,-0.8277,-0.8262,-0.826,-0.8247,-0.8268,-0.8268,-0.8267,0,-0.8319,-0.8315,-0.8303,-0.8301,-0.8298,-0.8293,-0.8288,-0.8283,-0.828,-0.8279,-0.8276,-0.8277,-0.827,-0.8276,-0.8266,-0.8271,-0.8268,-0.8267,-0.8266,-0.8265,-0.8271,-0.826,-0.8244,-0.8241,-0.8265,-0.8265,-0.8265,0,-0.8306,-0.8298,-0.829,-0.8288,-0.8285,-0.8281,-0.828,-0.8277,-0.8274,-0.8269,-0.8267,-0.8262,-0.8259,-0.8255,-0.8255,-0.8259,-0.8245,-0.825,-0.8244,-0.8244,-0.824,-0.824,-0.8222,-0.8239,-0.8239,-0.8239,-0.8239,0,-0.829,-0.8283,-0.8284,-0.8279,-0.8271,-0.8273,-0.8265,-0.8264,-0.8261,-0.8256,-0.8258,-0.8253,-0.8254,-0.8249,-0.8248,-0.824,-0.8239,-0.8238,-0.8238,-0.8237,-0.8237,-0.8235,-0.8235,-0.8238,-0.8239,-0.8239,-0.8239,0,-0.8274,-0.8275,-0.8267,-0.8265,-0.8265,-0.8259,-0.8257,-0.8252,-0.8252,-0.8245,-0.8244,-0.8243,-0.8238,-0.8237,-0.823,-0.823,-0.822,-0.8221,-0.8221,-0.8221,-0.8215,-0.8215,-0.8194,-0.8191,-0.821,-0.821,-0.821,0,-0.8264,-0.8258,-0.8257,-0.8254,-0.8252,-0.8247,-0.8244,-0.8246,-0.8243,-0.8239,-0.8235,-0.8229,-0.8225,-0.8215,-0.8214,-0.8209,-0.821,-0.8203,-0.8209,-0.8208,-0.8209,-0.8209,-0.8208,-0.8201,-0.8201,-0.8201,-0.82,0,-0.8245,-0.8246,-0.8242,-0.8238,-0.8235,-0.8232,-0.8229,-0.8226,-0.8228,-0.8224,-0.8218,-0.8215,-0.8209,-0.8203,-0.8198,-0.8196,-0.8198,-0.8199,-0.8197,-0.8196,-0.8196,-0.8195,-0.8217,-0.8199,-0.8199,-0.8199,-0.8199,-0.8199,-0.8231,-0.8227,-0.8225,-0.822,-0.8219,-0.8216,-0.8212,-0.8212,-0.8207,-0.8202,-0.8204,-0.8198,-0.8195,-0.8189,-0.8187,-0.8182,-0.8184,-0.8182,-0.8181,-0.818,-0.8179,-0.8198,-0.8181,-0.8181,-0.8181,-0.8181,-0.8181,0,-0.8212,-0.8212,-0.8207,-0.8204,-0.82,-0.8204,-0.8201,-0.8198,-0.8193,-0.819,-0.8187,-0.818,-0.8175,-0.8174,-0.817,-0.8166,-0.8167,-0.8164,-0.8164,-0.8164,-0.8177,-0.8179,-0.8164,-0.8164,-0.8164,-0.8164,-0.8164,-0.8164,-0.8202,-0.8194,-0.8195,-0.8187,-0.8186,-0.8181,-0.8179,-0.8177,-0.8175,-0.8168,-0.8165,-0.8164,-0.8162,-0.8158,-0.8153,-0.8153,-0.8151,-0.8148,-0.8148,-0.8161,-0.8163,-0.8164,-0.8166,-0.8148,-0.8148,-0.8135,-0.8135,-0.8135]}]]